Back to catalog

STARLINK-32623

AliveCommunicationsVLEO
NORAD 62152·PAYLOAD·🇺🇸 United States

Launched Nov 30, 2024 from Cape Canaveral Space Force Station

Loading…

Next Passes (next 24 hours)

TLE

FreshSource: CelesTrak SupGP

Epoch: Sep 14, 2026, 22:31 UTC

1 62152C 24224P   26257.93868056 -.00051073  00000+0 -18497-2 0  2572
2 62152  43.0001 172.6413 0001198 267.7144 136.8562 15.27607318    12

Track STARLINK-32623 in real time with AllMySat

Download on the App Store